GAPWX Weather Reports


Display with metric or nautical units.
time (UTC)temp
F
wind
direction
speed
MPH
gust
MPH
rain 1hr
in
rain 24hr
in
rain mn
in
humidity
%
barometer
mb
20260903101810 48 225 0.0 2.0 0.00 0.00 0.00 58 1016.7
20260903095806 48 225 0.0 2.0 0.00 0.00 0.00 58 1016.8
20260903095306 48 225 0.0 1.0 0.00 0.00 0.00 59 1016.8
20260903094301 48 209 0.0 2.0 0.00 0.00 0.00 59 1016.8
20260903093759 48 225 0.0 2.0 0.00 0.00 0.00 59 1016.9
20260903093258 48 224 1.0 2.0 0.00 0.00 0.00 59 1016.9
20260903092756 48 224 1.0 1.0 0.00 0.00 0.00 59 1016.9
20260903092451 48 184 0.0 1.0 0.00 0.00 0.00 59 1017.0
20260903092256 48 184 0.0 1.0 0.00 0.00 0.00 59 1017.0
20260903090751 48 225 0.0 1.0 0.00 0.00 0.00 60 1017.2
20260903085248 48 225 1.0 1.0 0.00 0.00 0.00 60 1017.2
20260903083742 48 222 0.0 0.0 0.00 0.00 0.00 60 1017.3
20260903083242 48 218 0.0 0.0 0.00 0.00 0.00 60 1017.3
20260903082740 48 180 0.0 1.0 0.00 0.00 0.00 60 1017.2
20260903082240 48 180 0.0 0.0 0.00 0.00 0.00 60 1017.3
20260903081737 48 225 0.0 0.0 0.00 0.00 0.00 60 1017.4
20260903081236 48 225 0.0 1.0 0.00 0.00 0.00 60 1017.3
20260903075732 48 225 0.0 2.0 0.00 0.00 0.00 60 1017.4
20260903075231 48 208 1.0 2.0 0.00 0.00 0.00 60 1017.4
20260903074231 48 209 0.0 0.0 0.00 0.00 0.00 60 1017.5
20260903073726 48 216 0.0 2.0 0.00 0.00 0.00 60 1017.5
20260903073226 48 186 1.0 3.0 0.00 0.00 0.00 60 1017.4
20260903072723 48 204 1.0 2.0 0.00 0.00 0.00 60 1017.4
20260903071720 47 199 1.0 2.0 0.00 0.00 0.00 60 1017.4
20260903071221 47 221 0.0 2.0 0.00 0.00 0.00 61 1017.5
20260903070718 47 225 0.0 3.0 0.00 0.00 0.00 61 1017.5
20260903070217 47 188 1.0 2.0 0.00 0.00 0.00 61 1017.5
20260903065716 47 225 0.0 1.0 0.00 0.00 0.00 60 1017.5
20260903064212 47 225 0.0 1.0 0.00 0.00 0.00 60 1017.5
20260903063209 47 225 0.0 1.0 0.00 0.00 0.00 60 1017.5
20260903062207 47 225 0.0 1.0 0.00 0.00 0.00 60 1017.5
20260903061704 47 183 1.0 5.0 0.00 0.00 0.00 59 1017.6
20260903061204 47 225 0.0 0.0 0.00 0.00 0.00 59 1017.6
20260903060201 47 225 0.0 0.0 0.00 0.00 0.00 58 1017.5
20260903055905 48 225 0.0 0.0 0.00 0.00 0.00 58 1017.6
20260903055659 48 225 0.0 0.0 0.00 0.00 0.00 58 1017.6
20260903055159 48 180 0.0 0.0 0.00 0.00 0.00 58 1017.7
20260903054656 48 225 0.0 0.0 0.00 0.00 0.00 58 1017.7
20260903053654 48 225 0.0 0.0 0.00 0.00 0.00 57 1017.8
20260903053153 48 225 0.0 0.0 0.00 0.00 0.00 57 1017.7
20260903052651 49 225 0.0 0.0 0.00 0.00 0.00 57 1017.7
20260903052150 49 225 0.0 0.0 0.00 0.00 0.00 57 1017.7
20260903051148 49 225 0.0 0.0 0.00 0.00 0.00 56 1017.8
20260903050645 50 225 0.0 0.0 0.00 0.00 0.00 56 1017.7
20260903050145 50 225 0.0 1.0 0.00 0.00 0.00 56 1017.7
20260903044640 50 204 1.0 1.0 0.00 0.00 0.00 56 1017.7
20260903044139 50 185 0.0 1.0 0.00 0.00 0.00 55 1017.8
20260903043637 51 225 0.0 1.0 0.00 0.00 0.00 55 1017.7
20260903042634 51 224 0.0 2.0 0.00 0.00 0.00 55 1017.6
20260903042134 51 198 0.0 2.0 0.00 0.00 0.00 54 1017.7
20260903041131 51 159 2.0 2.0 0.00 0.00 0.00 54 1017.7
20260903040629 51 251 2.0 2.0 0.00 0.00 0.00 54 1017.6
20260903035626 52 212 0.0 1.0 0.00 0.00 0.00 53 1017.6
20260903034624 52 225 0.0 2.0 0.00 0.00 0.00 53 1017.5
20260903033120 52 187 0.0 3.0 0.00 0.00 0.00 52 1017.4
20260903032118 53 201 1.0 2.0 0.00 0.00 0.00 52 1017.3
20260903031616 53 183 0.0 1.0 0.00 0.00 0.00 51 1017.3
20260903030613 53 206 1.0 4.0 0.00 0.00 0.00 51 1017.3
20260903030113 53 225 0.0 1.0 0.00 0.00 0.00 50 1017.4
20260903025610 53 225 0.0 2.0 0.00 0.00 0.00 50 1017.4
20260903024608 54 212 1.0 3.0 0.00 0.00 0.00 49 1017.3
20260903024107 54 187 1.0 2.0 0.00 0.00 0.00 49 1017.4
20260903022101 55 225 0.0 4.0 0.00 0.00 0.00 47 1017.2
20260903014052 57 191 1.0 3.0 0.00 0.00 0.00 44 1017.3
20260903013049 57 193 1.0 6.0 0.00 0.00 0.00 43 1017.4
20260902175850 61 140 12.0 12.0 0.00 0.00 0.00 39 1017.8
20260902165550 58 203 3.0 4.0 0.00 0.00 0.00 47 1017.3
20260902162542 55 201 1.0 4.0 0.00 0.00 0.00 52 1017.4
20260902162041 53 194 0.0 4.0 0.00 0.00 0.00 53 1017.3
20260902161539 53 195 2.0 4.0 0.00 0.00 0.00 53 1017.3
20260902152025 47 109 2.0 7.0 0.00 0.00 0.00 59 1017.4
20260902151523 47 83 2.0 5.0 0.00 0.00 0.00 59 1017.3
20260902150520 46 233 0.0 4.0 0.00 0.00 0.00 60 1017.5
20260902140504 43 225 0.0 0.0 0.00 0.00 0.00 59 1017.1
20260902135501 43 180 1.0 2.0 0.00 0.00 0.00 59 1017.1
20260902135001 43 221 0.0 2.0 0.00 0.00 0.00 58 1017.0
20260902134458 43 180 0.0 1.0 0.00 0.00 0.00 58 1017.0
20260902133958 43 225 0.0 1.0 0.00 0.00 0.00 59 1016.9
20260902133456 43 215 0.0 1.0 0.00 0.00 0.00 58 1016.9
20260902132453 43 182 1.0 2.0 0.00 0.00 0.00 58 1016.7
20260902125445 43 205 1.0 3.0 0.00 0.00 0.00 58 1016.6
20260902123439 43 193 1.0 1.0 0.00 0.00 0.00 57 1016.4
20260902122939 43 180 0.0 2.0 0.00 0.00 0.00 57 1016.4
20260902121936 43 225 0.0 3.0 0.00 0.00 0.00 57 1016.4
20260902121434 43 181 2.0 2.0 0.00 0.00 0.00 57 1016.3
20260902120431 43 219 0.0 2.0 0.00 0.00 0.00 57 1016.3
20260902115429 43 209 1.0 2.0 0.00 0.00 0.00 57 1016.3
20260902114426 43 225 1.0 3.0 0.00 0.00 0.00 57 1016.5
20260902113925 43 214 0.0 2.0 0.00 0.00 0.00 57 1016.4
20260902113423 43 214 1.0 3.0 0.00 0.00 0.00 57 1016.4
20260902112420 43 180 1.0 2.0 0.00 0.00 0.00 56 1016.4
20260902111418 43 212 1.0 3.0 0.00 0.00 0.00 56 1016.5
20260902110415 43 213 2.0 3.0 0.00 0.00 0.00 56 1016.5
20260902105412 43 188 1.0 3.0 0.00 0.00 0.00 56 1016.6
20260902104409 43 192 1.0 2.0 0.00 0.00 0.00 56 1016.6
20260902103909 43 225 1.0 3.0 0.00 0.00 0.00 56 1016.7